Weather History for K3R7 - November, 2012

Change the Weather History Date:

Friday, November 30, 2012

  Actual Average (KLCH) Record (KLCH)
Temperature  
Mean Temperature 60 °F 57 °F  
Max Temperature 72 °F 67 °F 86 °F (1912)
Min Temperature 47 °F 47 °F 20 °F (1911)
Degree Days  
Heating Degree Days 6 9  
Month to date heating degree days 171  
Since 1 July heating degree days 207  
Cooling Degree Days 0 1  
Month to date cooling degree days 56  
Year to date cooling degree days 2789  
Growing Degree Days 10 (Base 50)    
Moisture  
Dew Point 55 °F    
Average Humidity 83    
Maximum Humidity 98    
Minimum Humidity 59    
Precipitation  
Precipitation 0.00 in 0.14 in 3.21 in (1968)
Month to date precipitation 4.43  
Year to date precipitation 52.81  
Snow  
Snow - 0.00 in 0.00 in ()
Month to date snowfall 0.0  
Since 1 July snowfall 0.0  
Since 1 September snowfall 0.0  
Snow Depth -    
Sea Level Pressure  
Sea Level Pressure 30.20 in    
Wind  
Wind Speed 6 mph ()    
Max Wind Speed 12 mph    
Max Gust Speed -    
Visibility 9.2 miles    
Events      
T = Trace of Precipitation, MM = Missing Value Source: Averaged Metar Reports

Daily Weather History Graph

Daily Weather History Graph

Search for Another Location

Airport or City:

Trip Planner

Search our weather history database for the weather conditions in past years. The results will help you decide how hot, cold, wet, or windy it might be!

Date:

Astronomy

Nov. 30, 2012 Rise Set
Actual Time 6:49 AM CST 5:09 PM CST
Civil Twilight 6:23 AM CST 5:36 PM CST
Nautical Twilight 5:53 AM CST 6:05 PM CST
Astronomical Twilight 5:24 AM CST 6:34 PM CST
Moon 7:04 PM CST (11/30) 8:21 AM CST (11/30)
Length of Visible Light 11h 13m
Length of Day
10h 20m
Waning Gibbous, 96% of the Moon is Illuminated
Nov 30
Waning Gibbous
Dec 6
Last Quarter
Dec 13
New
Dec 19
First Quarter
Dec 28
Full

Hourly Weather History & Observations

Time (CST) Temp. Dew Point Humidity Pressure Visibility Wind Dir Wind Speed Gust Speed Precip Events Conditions
12:15 AM 47.7 °F 47.1 °F 98% 30.23 in 7.0 mi East 6.9 mph - N/A   Clear
12:35 AM 50.0 °F 49.3 °F 97% 30.23 in 7.0 mi ESE 4.6 mph - N/A   Clear
12:55 AM 50.9 °F 50.0 °F 97% 30.23 in 7.0 mi ESE 5.8 mph - N/A   Clear
1:15 AM 51.3 °F 50.4 °F 97% 30.22 in 7.0 mi ESE 8.1 mph - N/A   Clear
1:35 AM 52.0 °F 50.9 °F 96% 30.23 in 7.0 mi ESE 8.1 mph - N/A   Clear
1:55 AM 52.0 °F 50.9 °F 96% 30.22 in 7.0 mi ESE 10.4 mph - N/A   Clear
2:15 AM 52.0 °F 50.9 °F 96% 30.22 in 7.0 mi SE 10.4 mph - N/A   Clear
2:35 AM 52.0 °F 50.9 °F 96% 30.22 in 7.0 mi ESE 9.2 mph - N/A   Clear
2:55 AM 51.8 °F 50.9 °F 97% 30.22 in 7.0 mi ESE 6.9 mph - N/A   Clear
3:15 AM 51.8 °F 50.9 °F 97% 30.21 in 7.0 mi ESE 9.2 mph - N/A   Clear
3:35 AM 52.0 °F 51.1 °F 97% 30.21 in 7.0 mi ESE 9.2 mph - N/A   Clear
3:55 AM 52.0 °F 51.1 °F 97% 30.20 in 7.0 mi ESE 10.4 mph - N/A   Clear
4:15 AM 52.0 °F 51.1 °F 97% 30.20 in 7.0 mi ESE 9.2 mph - N/A   Clear
4:35 AM 51.8 °F 50.9 °F 97% 30.20 in 7.0 mi ESE 8.1 mph - N/A   Clear
4:55 AM 52.0 °F 51.1 °F 97% 30.20 in 7.0 mi ESE 9.2 mph - N/A   Clear
5:15 AM 52.0 °F 50.9 °F 96% 30.21 in 7.0 mi ESE 6.9 mph - N/A   Scattered Clouds
5:35 AM 52.2 °F 51.1 °F 96% 30.21 in 7.0 mi ESE 8.1 mph - N/A   Mostly Cloudy
5:55 AM 52.9 °F 51.3 °F 94% 30.22 in 10.0 mi ESE 6.9 mph - N/A   Overcast
6:15 AM 52.7 °F 50.9 °F 94% 30.22 in 10.0 mi ESE 5.8 mph - N/A   Overcast
6:35 AM 52.2 °F 50.9 °F 95% 30.21 in 10.0 mi ESE 10.4 mph - N/A   Mostly Cloudy
6:55 AM 53.4 °F 51.1 °F 92% 30.21 in 10.0 mi ESE 11.5 mph - N/A   Mostly Cloudy
7:15 AM 53.6 °F 51.3 °F 92% 30.22 in 10.0 mi ESE 10.4 mph - N/A   Scattered Clouds
7:35 AM 54.7 °F 51.6 °F 89% 30.23 in 10.0 mi SE 10.4 mph - N/A   Mostly Cloudy
7:55 AM 54.7 °F 51.8 °F 90% 30.23 in 10.0 mi ESE 8.1 mph - N/A   Overcast
8:15 AM 55.4 °F 52.0 °F 88% 30.24 in 10.0 mi ESE 6.9 mph - N/A   Overcast
8:35 AM 55.9 °F 52.0 °F 87% 30.25 in 10.0 mi ESE 4.6 mph - N/A   Overcast
8:55 AM 56.3 °F 52.3 °F 87% 30.25 in 10.0 mi ESE 8.1 mph - N/A   Overcast
9:15 AM 57.9 °F 53.2 °F 84% 30.25 in 10.0 mi ESE 9.2 mph - N/A   Mostly Cloudy
9:35 AM 60.3 °F 54.1 °F 80% 30.25 in 10.0 mi SE 8.1 mph - N/A   Clear
9:55 AM 61.9 °F 55.2 °F 79% 30.25 in 10.0 mi SE 9.2 mph - N/A   Scattered Clouds
10:15 AM 62.6 °F 55.8 °F 78% 30.25 in 10.0 mi SE 6.9 mph - N/A   Mostly Cloudy
10:35 AM 63.5 °F 56.3 °F 77% 30.25 in 10.0 mi ESE 6.9 mph - N/A   Overcast
10:55 AM 64.2 °F 56.7 °F 76% 30.25 in 10.0 mi ESE 6.9 mph - N/A   Overcast
11:15 AM 65.7 °F 57.2 °F 74% 30.24 in 10.0 mi ESE 5.8 mph - N/A   Overcast
11:35 AM 66.4 °F 57.6 °F 73% 30.24 in 10.0 mi SSE 4.6 mph - N/A   Mostly Cloudy
11:55 AM 68.5 °F 58.1 °F 69% 30.23 in 10.0 mi Calm Calm - N/A   Mostly Cloudy
12:15 PM 68.5 °F 58.3 °F 70% 30.22 in 10.0 mi South 4.6 mph - N/A   Mostly Cloudy
12:35 PM 69.3 °F 58.1 °F 68% 30.21 in 10.0 mi SSE 4.6 mph - N/A   Overcast
12:55 PM 70.9 °F 58.5 °F 65% 30.19 in 10.0 mi SSE 5.8 mph - N/A   Overcast
1:15 PM 70.0 °F 58.1 °F 66% 30.18 in 10.0 mi SE 4.6 mph - N/A   Overcast
1:35 PM 71.4 °F 57.7 °F 62% 30.18 in 10.0 mi SE 8.1 mph - N/A   Mostly Cloudy
1:55 PM 71.6 °F 57.7 °F 62% 30.17 in 10.0 mi ESE 6.9 mph - N/A   Mostly Cloudy
2:15 PM 70.7 °F 56.8 °F 61% 30.17 in 10.0 mi SSW 5.8 mph - N/A   Overcast
2:35 PM 70.5 °F 56.7 °F 61% 30.17 in 10.0 mi SE 4.6 mph - N/A   Overcast
2:55 PM 72.1 °F 57.2 °F 59% 30.16 in 10.0 mi ESE 6.9 mph - N/A   Mostly Cloudy
3:15 PM 72.0 °F 57.2 °F 60% 30.16 in 10.0 mi SSE 3.5 mph - N/A   Scattered Clouds
3:35 PM 71.6 °F 57.0 °F 60% 30.16 in 10.0 mi ESE 5.8 mph - N/A   Clear
3:55 PM 70.3 °F 56.5 °F 61% 30.16 in 10.0 mi SE 3.5 mph - N/A   Mostly Cloudy
4:15 PM 69.8 °F 56.8 °F 63% 30.16 in 10.0 mi SE 5.8 mph - N/A   Mostly Cloudy
4:35 PM 68.9 °F 57.0 °F 66% 30.15 in 10.0 mi ESE 3.5 mph - N/A   Scattered Clouds
4:55 PM 67.6 °F 56.7 °F 68% 30.15 in 10.0 mi ESE 3.5 mph - N/A   Mostly Cloudy
5:15 PM 66.9 °F 56.8 °F 70% 30.16 in 10.0 mi Calm Calm - N/A   Scattered Clouds
5:35 PM 64.8 °F 57.4 °F 77% 30.16 in 10.0 mi South 3.5 mph - N/A   Clear
6:15 PM 63.9 °F 57.4 °F 79% 30.17 in 10.0 mi South 3.5 mph - N/A   Clear
6:35 PM 62.1 °F 57.4 °F 85% 30.17 in 10.0 mi SSE 3.5 mph - N/A   Clear
6:55 PM 62.2 °F 57.6 °F 85% 30.18 in 10.0 mi South 4.6 mph - N/A   Clear
7:15 PM 61.3 °F 57.4 °F 87% 30.18 in 10.0 mi Calm Calm - N/A   Scattered Clouds
7:35 PM 61.0 °F 57.6 °F 88% 30.18 in 10.0 mi Calm Calm - N/A   Mostly Cloudy
7:55 PM 61.5 °F 58.1 °F 89% 30.18 in 10.0 mi SSE 3.5 mph - N/A   Overcast
8:15 PM 62.2 °F 58.1 °F 86% 30.18 in 10.0 mi SSE 5.8 mph - N/A   Overcast
8:35 PM 61.9 °F 57.6 °F 86% 30.18 in 10.0 mi SSE 5.8 mph - N/A   Mostly Cloudy
9:15 PM 61.0 °F 57.6 °F 88% 30.19 in 10.0 mi Calm Calm - N/A   Mostly Cloudy
9:35 PM 61.0 °F 58.1 °F 90% 30.18 in 10.0 mi SE 6.9 mph - N/A   Overcast
9:55 PM 60.8 °F 57.6 °F 89% 30.19 in 10.0 mi Calm Calm - N/A   Overcast
10:15 PM 59.9 °F 57.2 °F 91% 30.19 in 10.0 mi Calm Calm - N/A   Overcast
10:35 PM 59.0 °F 57.2 °F 94% 30.19 in 10.0 mi SE 5.8 mph - N/A   Mostly Cloudy
10:55 PM 60.6 °F 57.7 °F 90% 30.19 in 10.0 mi Calm Calm - N/A   Overcast
11:15 PM 60.8 °F 58.1 °F 91% 30.19 in 10.0 mi SE 3.5 mph - N/A   Overcast
11:35 PM 60.8 °F 57.7 °F 90% 30.18 in 10.0 mi ESE 3.5 mph - N/A   Overcast
11:55 PM 59.9 °F 57.7 °F 93% 30.18 in 7.0 mi SE 6.9 mph - N/A   Overcast